Temp
-16 -16 -16 -16 -16 -16 -16 -16 -16 -16 -16 -16 -16 -16 -16 -16 -15 -15 -15 -15 -15 -15 -15 -15 -15 -15 -15 -15 -15 -15 -15 -15 -15 -15 -15 -15 -15 -15 -14 -14 -14 -14
-17 -16 -16 -16 -16 -16 -16 -16 -16 -16 -16 -16 -16 -16 -16 -16 -16 -16 -16 -16 -16 -15 -15 -15 -15 -15 -16 -16 -16 -16 -16 -16 -16 -16 -16 -15 -15 -15 -15 -15 -15 -15
-17 -17 -16 -16 -16 -16 -16 -16 -16 -16 -16 -16 -16 -16 -16 -16 -16 -16 -16 -16 -16 -16 -16 -16 -16 -16 -16 -16 -16 -16 -16 -16 -16 -16 -16 -16 -16 -16 -16 -15 -15 -15
-17 -17 -17 -17 -17 -17 -17 -17 -17 -16 -16 -16 -16 -16 -16 -16 -16 -16 -16 -16 -16 -16 -16 -16 -16 -16 -16 -16 -16 -16 -16 -16 -16 -16 -16 -16 -16 -16 -16 -16 -16 -16
-17 -17 -17 -17 -17 -17 -17 -17 -17 -17 -17 -17 -17 -17 -17 -16 -16 -16 -17 -17 -17 -17 -17 -16 -16 -16 -16 -16 -16 -16 -16 -16 -16 -16 -16 -16 -16 -16 -16 -16 -16 -16
-18 -18 -18 -17 -17 -17 -17 -17 -17 -17 -17 -17 -17 -17 -17 -17 -17 -17 -17 -17 -17 -17 -17 -17 -17 -17 -17 -17 -17 -17 -17 -17 -16 -16 -16 -16 -16 -16 -16 -16 -16 -16
-18 -18 -18 -18 -18 -18 -18 -17 -17 -17 -17 -17 -17 -17 -17 -17 -17 -17 -17 -17 -17 -17 -17 -17 -17 -17 -17 -17 -17 -17 -17 -17 -17 -17 -17 -17 -17 -17 -16 -16 -16 -16
-18 -18 -18 -18 -18 -18 -18 -18 -17 -17 -17 -17 -17 -17 -17 -17 -17 -17 -17 -17 -17 -17 -17 -17 -17 -17 -17 -17 -17 -17 -17 -17 -17 -17 -17 -17 -17 -17 -17 -17 -16 -16
-18 -18 -18 -18 -18 -18 -18 -18 -18 -18 -17 -17 -17 -17 -17 -17 -17 -17 -17 -17 -17 -17 -17 -17 -17 -17 -17 -17 -17 -17 -17 -17 -17 -17 -17 -17 -17 -17 -17 -17 -17 -16
-18 -18 -18 -18 -18 -18 -18 -18 -18 -18 -18 -18 -18 -17 -17 -17 -17 -17 -17 -17 -17 -18 -18 -18 -18 -18 -18 -18 -18 -18 -18 -18 -18 -18 -18 -17 -17 -17 -17 -17 -17 -17
-18 -18 -18 -19 -18 -18 -18 -18 -18 -18 -18 -18 -18 -18 -18 -18 -17 -17 -17 -17 -18 -18 -18 -18 -18 -18 -18 -18 -18 -18 -18 -18 -18 -18 -18 -18 -18 -18 -17 -17 -17 -17
-18 -18 -19 -19 -19 -19 -18 -18 -18 -18 -18 -18 -18 -18 -18 -18 -17 -18 -18 -17 -18 -18 -18 -18 -18 -18 -18 -18 -18 -18 -18 -18 -18 -18 -18 -18 -18 -18 -18 -18 -17 -17
-18 -18 -19 -19 -19 -19 -18 -19 -19 -19 -18 -18 -18 -18 -18 -18 -18 -18 -18 -18 -18 -18 -18 -18 -18 -18 -18 -18 -18 -18 -18 -18 -18 -18 -18 -18 -18 -18 -18 -18 -18 -18
-19 -19 -19 -19 -19 -19 -19 -19 -19 -19 -19 -19 -19 -19 -18 -18 -18 -18 -19 -18 -18 -18 -18 -18 -18 -18 -18 -18 -18 -18 -18 -18 -18 -18 -18 -18 -18 -18 -18 -18 -18 -18
-19 -19 -19 -19 -19 -19 -19 -19 -19 -19 -19 -19 -19 -19 -18 -18 -18 -18 -18 -18 -18 -18 -18 -18 -18 -18 -18 -18 -18 -18 -18 -18 -18 -18 -18 -18 -18 -18 -18 -18 -18 -18
-19 -19 -19 -19 -19 -19 -19 -19 -19 -19 -19 -19 -19 -19 -19 -18 -18 -18 -18 -18 -18 -18 -18 -18 -18 -18 -18 -18 -18 -18 -18 -18 -18 -18 -18 -18 -18 -18 -18 -18 -18 -18
-20 -19 -19 -19 -19 -19 -19 -19 -19 -19 -19 -19 -19 -19 -19 -19 -18 -18 -18 -18 -18 -18 -19 -19 -19 -19 -19 -19 -18 -18 -18 -18 -18 -18 -18 -18 -18 -18 -18 -18 -18 -18
-20 -20 -20 -20 -20 -20 -20 -20 -20 -20 -19 -19 -19 -19 -19 -19 -19 -19 -19 -19 -19 -19 -19 -19 -19 -19 -19 -19 -19 -19 -18 -18 -18 -18 -18 -18 -18 -18 -18 -18 -18 -18
-20 -20 -20 -20 -20 -20 -20 -20 -20 -20 -20 -20 -20 -20 -19 -19 -19 -19 -19 -19 -19 -19 -19 -19 -19 -19 -19 -19 -19 -19 -19 -19 -19 -19 -19 -18 -18 -18 -18 -18 -18 -18
-20 -20 -20 -20 -20 -20 -20 -20 -20 -20 -20 -20 -20 -20 -20 -20 -20 -19 -19 -19 -19 -19 -19 -19 -19 -19 -19 -19 -19 -19 -19 -19 -19 -19 -19 -19 -19 -19 -18 -18 -18 -18
-20 -20 -20 -20 -20 -20 -20 -20 -20 -20 -20 -20 -20 -20 -20 -20 -20 -20 -20 -19 -19 -19 -19 -19 -19 -19 -19 -19 -19 -19 -19 -19 -19 -19 -19 -19 -19 -19 -19 -19 -18 -18
-21 -21 -20 -21 -21 -21 -20 -20 -20 -20 -20 -20 -20 -20 -20 -20 -20 -20 -20 -20 -19 -19 -19 -19 -19 -19 -19 -19 -19 -19 -19 -19 -19 -19 -19 -19 -19 -19 -19 -19 -19 -19
-21 -21 -21 -21 -21 -21 -21 -21 -21 -21 -20 -20 -20 -20 -20 -20 -20 -20 -20 -20 -20 -20 -19 -19 -19 -19 -19 -19 -19 -19 -19 -19 -20 -20 -20 -20 -19 -19 -19 -19 -19 -19
-21 -21 -21 -21 -21 -21 -21 -21 -21 -21 -21 -21 -21 -20 -20 -20 -20 -20 -20 -20 -20 -20 -20 -20 -20 -20 -20 -20 -20 -20 -20 -20 -20 -20 -20 -20 -20 -19 -19 -19 -19 -19
-21 -21 -21 -21 -21 -21 -21 -21 -21 -21 -21 -21 -21 -21 -20 -20 -20 -20 -20 -20 -20 -20 -20 -20 -20 -20 -20 -20 -20 -20 -20 -20 -20 -20 -20 -20 -20 -20 -19 -19 -19 -19
-22 -22 -22 -21 -21 -21 -21 -21 -21 -21 -21 -21 -21 -21 -21 -20 -20 -20 -20 -20 -20 -20 -20 -20 -20 -20 -20 -20 -20 -20 -20 -20 -20 -20 -20 -20 -20 -20 -20 -20 -19 -19
Height
5735 5736 5736 5737 5737 5737 5737 5737 5737 5737 5737 5737 5737 5737 5737 5737 5738 5738 5738 5738 5739 5739 5740 5740 5740 5741 5741 5741 5741 5742 5742 5742 5742 5743 5743 5744 5744 5744 5745 5745 5746 5747
5732 5733 5733 5734 5734 5735 5735 5735 5734 5735 5735 5735 5734 5734 5735 5735 5735 5735 5736 5736 5736 5737 5737 5738 5738 5738 5739 5739 5739 5740 5740 5740 5740 5741 5741 5742 5742 5742 5743 5743 5744 5745
5729 5730 5730 5731 5731 5732 5732 5732 5731 5732 5732 5732 5732 5732 5732 5732 5732 5733 5733 5733 5733 5734 5734 5735 5735 5736 5736 5737 5737 5737 5738 5738 5738 5739 5739 5740 5740 5741 5741 5742 5742 5743
5726 5727 5727 5727 5728 5729 5729 5729 5728 5729 5729 5729 5729 5729 5729 5729 5730 5730 5730 5730 5731 5731 5732 5732 5732 5733 5733 5734 5734 5735 5735 5735 5736 5736 5737 5737 5738 5738 5739 5740 5740 5741
5722 5723 5724 5724 5725 5725 5726 5725 5725 5725 5726 5726 5726 5726 5726 5726 5727 5727 5728 5728 5728 5728 5729 5729 5730 5730 5731 5731 5731 5732 5732 5732 5733 5733 5734 5734 5735 5736 5736 5737 5737 5738
5719 5720 5720 5721 5721 5722 5722 5722 5722 5722 5723 5723 5723 5724 5723 5724 5724 5724 5725 5725 5725 5726 5726 5727 5727 5728 5728 5729 5729 5729 5729 5730 5730 5730 5731 5731 5732 5732 5732 5733 5734 5734
5716 5716 5717 5717 5718 5718 5718 5718 5719 5719 5720 5720 5721 5721 5721 5721 5721 5722 5722 5722 5722 5723 5723 5724 5724 5725 5726 5726 5726 5726 5727 5727 5727 5728 5728 5728 5729 5729 5729 5729 5730 5730
5712 5713 5713 5714 5715 5715 5715 5715 5715 5716 5716 5717 5718 5718 5719 5719 5719 5719 5720 5720 5720 5720 5720 5720 5721 5722 5722 5723 5723 5724 5724 5724 5724 5725 5725 5725 5726 5726 5726 5726 5726 5726
5709 5710 5710 5711 5712 5712 5712 5712 5712 5713 5713 5714 5714 5715 5716 5716 5717 5717 5718 5718 5718 5717 5717 5717 5718 5718 5719 5720 5720 5720 5721 5721 5721 5722 5722 5723 5723 5723 5723 5723 5723 5723
5706 5706 5706 5707 5708 5708 5709 5709 5709 5710 5710 5710 5711 5711 5712 5712 5713 5714 5714 5715 5715 5715 5714 5714 5715 5715 5716 5717 5717 5717 5717 5717 5718 5719 5719 5719 5720 5720 5720 5720 5720 5720
5702 5702 5703 5703 5704 5704 5705 5706 5706 5706 5706 5706 5707 5708 5708 5709 5709 5710 5710 5711 5711 5711 5711 5712 5712 5712 5713 5713 5713 5713 5713 5714 5714 5715 5715 5716 5716 5716 5717 5717 5717 5717
5697 5698 5698 5699 5700 5700 5701 5701 5701 5702 5702 5702 5703 5704 5704 5704 5705 5705 5705 5706 5707 5707 5707 5708 5708 5708 5708 5709 5709 5709 5709 5709 5710 5711 5711 5711 5711 5712 5712 5712 5713 5713
5693 5693 5694 5694 5695 5696 5696 5697 5697 5697 5697 5698 5699 5700 5700 5701 5700 5700 5700 5700 5702 5702 5702 5703 5704 5704 5704 5705 5705 5705 5705 5706 5706 5707 5707 5707 5707 5707 5707 5707 5708 5708
5687 5688 5688 5689 5690 5691 5691 5691 5692 5692 5692 5693 5694 5695 5696 5696 5696 5696 5695 5695 5696 5697 5697 5698 5699 5699 5700 5700 5701 5701 5701 5702 5702 5702 5702 5703 5703 5703 5703 5703 5703 5702
5682 5682 5683 5683 5684 5685 5686 5686 5686 5686 5687 5688 5689 5689 5690 5691 5691 5691 5691 5691 5691 5692 5692 5693 5693 5694 5694 5695 5695 5696 5696 5697 5697 5697 5698 5698 5698 5698 5698 5698 5698 5697
5676 5677 5677 5678 5678 5679 5680 5681 5681 5681 5682 5682 5683 5684 5685 5685 5686 5686 5686 5686 5687 5686 5687 5687 5688 5688 5688 5689 5689 5690 5691 5691 5692 5692 5692 5692 5692 5692 5692 5692 5692 5692
5670 5671 5672 5672 5673 5673 5674 5675 5675 5676 5676 5677 5677 5678 5679 5680 5680 5680 5681 5681 5681 5680 5680 5681 5681 5681 5682 5682 5683 5683 5684 5685 5685 5686 5686 5686 5686 5686 5686 5686 5685 5685
5665 5665 5666 5667 5667 5667 5668 5669 5669 5670 5670 5670 5671 5672 5673 5674 5674 5673 5674 5675 5673 5673 5673 5674 5674 5674 5675 5676 5676 5677 5678 5678 5679 5679 5679 5680 5680 5680 5680 5679 5679 5678
5659 5659 5660 5660 5661 5661 5662 5662 5663 5663 5663 5664 5664 5665 5666 5667 5667 5667 5668 5668 5667 5667 5668 5668 5668 5668 5669 5669 5669 5670 5670 5671 5672 5673 5672 5673 5673 5673 5673 5673 5672 5672
5652 5652 5653 5654 5654 5654 5655 5655 5656 5656 5657 5657 5658 5659 5659 5660 5660 5660 5660 5661 5661 5662 5662 5662 5662 5662 5662 5662 5662 5663 5663 5664 5665 5665 5665 5666 5666 5666 5666 5665 5665 5665
5644 5645 5645 5646 5647 5647 5648 5648 5648 5649 5649 5650 5651 5652 5652 5652 5653 5653 5653 5654 5654 5655 5656 5656 5656 5656 5656 5656 5656 5656 5656 5657 5657 5658 5658 5658 5658 5658 5658 5658 5658 5658
5636 5637 5638 5638 5639 5640 5640 5640 5641 5641 5642 5643 5644 5645 5645 5645 5646 5646 5646 5647 5648 5648 5649 5649 5649 5649 5650 5650 5650 5650 5650 5650 5651 5650 5650 5651 5650 5650 5650 5650 5650 5650
5628 5629 5630 5631 5631 5632 5633 5633 5633 5634 5634 5636 5637 5637 5638 5638 5639 5639 5639 5640 5641 5642 5642 5642 5642 5643 5643 5643 5644 5644 5644 5643 5643 5643 5643 5643 5642 5642 5642 5642 5642 5642
5620 5621 5622 5623 5623 5624 5625 5626 5626 5627 5628 5628 5629 5630 5630 5631 5632 5632 5632 5633 5634 5634 5635 5636 5636 5636 5636 5636 5636 5637 5637 5636 5635 5635 5635 5635 5635 5635 5635 5634 5634 5634
5613 5613 5614 5615 5616 5616 5617 5618 5619 5620 5621 5621 5622 5623 5623 5624 5625 5625 5625 5626 5626 5627 5628 5629 5629 5629 5629 5629 5629 5629 5629 5628 5627 5627 5627 5627 5627 5627 5627 5627 5626 5625
5605 5606 5606 5607 5608 5609 5610 5611 5611 5612 5613 5614 5615 5615 5616 5617 5618 5618 5618 5619 5619 5620 5620 5621 5621 5622 5622 5622 5622 5622 5621 5620 5620 5620 5620 5620 5620 5620 5620 5619 5618 5618
Wind_Speed
19 19 20 20 20 20 20 20 20 19 19 19 19 18 18 18 18 18 18 18 18 18 17 17 17 18 18 18 18 18 18 18 18 18 18 19 19 20 20 20 21 21
21 21 20 20 20 20 20 20 20 20 20 20 20 19 19 18 18 18 18 18 18 17 17 17 17 17 17 17 17 17 17 18 18 18 18 18 18 19 19 20 20 20
23 22 22 21 20 19 19 19 19 19 19 19 20 20 20 19 19 18 18 18 18 18 17 17 17 17 17 16 17 17 17 17 18 18 18 17 18 18 18 19 19 19
26 24 23 22 21 19 18 19 19 19 19 19 19 20 20 20 19 19 19 18 18 18 18 18 17 17 17 16 17 17 17 18 18 18 18 18 18 18 18 19 19 19
26 25 23 22 21 20 19 19 20 20 19 19 19 19 20 20 20 20 19 19 19 19 19 18 18 18 18 18 18 18 18 18 19 19 19 19 20 20 20 20 20 20
26 25 24 23 22 21 20 20 21 21 20 20 19 19 19 19 19 19 20 20 20 20 20 20 20 20 20 20 20 20 20 20 20 20 21 21 21 22 22 22 22 22
26 25 25 25 24 23 22 22 22 22 22 21 20 20 20 20 20 20 19 20 20 21 22 22 22 22 22 22 22 22 23 23 23 23 23 23 23 23 24 24 25 25
28 28 27 27 26 25 24 24 25 24 24 23 23 22 22 22 21 20 20 20 20 21 21 22 22 22 22 22 23 24 24 25 25 26 26 26 26 26 26 27 27 27
29 30 30 29 28 27 27 27 27 27 26 26 26 25 24 24 23 21 20 20 20 21 21 21 21 21 21 22 22 23 24 25 26 26 27 28 28 29 29 30 30 30
30 31 32 32 31 30 29 29 29 29 28 28 28 27 27 26 25 23 22 21 22 23 23 23 23 23 22 22 22 23 23 23 24 25 26 28 30 31 31 31 32 32
32 33 33 32 32 31 31 31 31 31 30 30 29 28 28 28 28 27 26 25 24 25 26 26 26 26 25 24 24 25 25 25 25 25 26 28 30 31 32 33 33 33
34 34 34 33 33 32 32 32 33 33 32 32 31 30 29 29 29 29 30 30 29 28 28 28 27 28 28 28 28 29 30 30 30 29 29 29 30 32 33 34 35 35
38 38 38 37 35 34 34 35 36 36 36 36 35 34 33 32 32 32 33 34 33 32 33 31 30 30 31 31 32 33 34 34 35 35 35 34 33 33 33 34 35 36
40 39 39 39 38 37 38 39 39 40 40 38 37 37 37 36 36 36 36 37 37 37 37 35 34 34 34 34 34 35 35 36 36 37 38 38 38 38 37 37 37 37
43 41 40 41 41 41 41 43 43 42 41 40 40 40 39 39 39 40 40 40 40 40 40 40 40 39 39 38 37 37 37 37 38 38 38 39 40 41 42 42 42 41
48 46 45 44 45 45 44 44 44 44 43 42 42 42 41 41 42 42 43 43 42 43 44 44 44 44 44 43 42 42 42 42 41 41 41 41 41 42 43 45 45 45
50 50 49 49 49 49 48 47 46 46 46 45 44 43 43 44 44 44 44 44 45 46 45 45 46 46 46 45 45 45 45 45 45 44 44 43 44 44 44 45 45 44
51 51 51 51 51 51 51 50 50 49 49 48 47 46 45 45 47 47 46 46 48 49 48 47 48 49 48 48 49 49 48 48 47 47 47 46 45 45 45 45 45 45
51 52 52 52 52 52 52 52 52 52 52 51 50 50 49 49 50 51 51 51 52 52 52 53 54 54 54 54 54 53 52 51 50 49 48 47 47 46 46 46 47 48
54 54 54 54 54 54 54 54 54 54 55 54 54 54 54 54 54 54 55 55 55 55 55 56 57 57 58 57 57 56 55 54 52 51 50 48 48 47 47 47 49 50
55 55 55 55 55 54 54 55 56 56 56 56 56 56 56 56 56 56 56 57 57 57 57 57 57 58 58 58 58 57 56 55 54 53 51 50 49 49 49 49 50 52
54 54 53 53 53 53 53 54 54 55 55 55 55 55 55 55 55 55 55 56 56 56 56 56 56 57 57 57 57 56 56 55 54 53 52 51 50 51 51 50 51 53
52 52 52 52 51 52 52 52 52 53 54 54 54 54 54 54 54 54 54 54 54 55 55 55 55 55 56 56 55 55 55 54 53 52 51 50 50 51 51 51 52 54
50 50 50 50 51 51 51 51 52 52 53 53 53 53 54 54 54 54 54 54 54 54 54 54 54 54 54 55 54 53 52 52 51 51 50 49 48 49 51 53 54 56
48 49 49 49 49 50 51 51 51 51 52 53 53 53 54 54 54 55 55 55 54 54 53 53 53 53 53 52 52 51 50 50 50 50 49 47 47 47 48 50 53 54
48 48 49 49 49 49 50 50 50 51 51 52 52 52 53 53 53 54 54 54 54 53 52 52 52 51 50 49 49 48 48 47 47 47 46 46 46 46 47 49 51 53
Wind_Direction
263 264 265 266 267 268 269 268 268 268 268 268 268 267 266 265 265 265 265 264 261 258 253 250 248 248 250 252 253 253 254 256 258 257 255 254 254 254 254 254 255 255
267 267 267 268 268 269 269 269 268 267 267 267 267 267 266 266 265 265 265 265 265 263 260 255 250 247 246 246 248 249 250 251 252 254 254 253 254 254 255 255 255 257
271 271 270 269 267 265 264 265 266 266 265 264 265 265 264 264 264 264 263 264 264 264 263 260 257 252 248 245 244 244 245 247 248 250 251 251 251 252 253 254 255 256
269 270 269 267 264 261 260 261 264 265 266 265 264 265 265 264 262 262 261 262 262 262 262 262 260 258 254 250 247 245 244 245 246 248 250 250 251 252 252 253 255 256
267 268 267 266 262 260 258 258 258 260 262 264 265 266 267 267 265 264 262 261 261 261 261 261 261 260 258 254 251 249 248 247 247 249 251 253 255 257 258 258 258 258
268 265 264 263 260 258 256 256 256 257 259 262 265 267 267 267 267 266 265 263 262 261 260 260 260 260 258 256 254 252 250 249 248 248 250 252 255 258 260 261 262 262
267 264 262 261 258 256 255 256 258 259 261 263 264 266 267 268 269 267 267 266 264 262 261 260 260 261 260 259 257 256 254 253 252 251 250 251 252 254 257 259 260 261
265 264 262 261 258 255 254 255 258 260 263 265 265 265 265 266 267 268 269 269 268 266 263 262 262 262 263 263 263 261 259 258 258 257 256 255 254 254 255 256 258 259
267 267 264 262 258 255 254 255 258 261 264 265 266 265 263 261 261 263 266 268 267 265 263 262 261 262 264 266 266 266 265 265 264 264 263 262 261 260 258 258 258 258
268 269 265 264 261 258 257 257 259 262 264 264 264 263 262 260 257 256 257 261 261 260 260 260 260 260 262 264 265 265 266 267 268 269 269 268 267 266 264 263 261 261
265 266 263 263 263 261 260 259 259 261 263 263 262 261 260 259 257 254 253 255 258 258 258 258 259 259 258 258 259 259 261 263 266 269 271 271 271 270 269 268 267 266
262 262 261 262 262 262 261 261 260 259 260 261 261 261 260 258 259 260 259 258 258 259 260 258 256 256 256 254 254 255 259 262 264 267 270 272 272 271 271 270 269 268
262 260 259 260 261 261 262 263 263 262 260 260 261 261 260 258 260 265 267 264 260 262 264 260 255 255 256 256 257 259 262 266 268 270 271 272 272 270 269 269 269 269
260 259 259 259 259 260 261 261 263 264 262 261 261 260 260 258 260 264 267 266 264 264 266 264 260 259 260 260 261 262 265 269 272 273 274 274 274 272 269 268 268 268
256 258 258 259 260 260 260 260 261 263 263 262 262 261 260 259 260 263 265 265 266 267 267 267 267 267 268 268 266 264 266 270 273 274 275 275 275 275 274 271 269 269
257 259 260 261 262 262 262 262 262 263 263 263 262 262 262 260 260 263 264 265 267 269 269 270 270 271 271 271 270 268 269 271 273 274 275 275 275 276 276 274 271 271
257 259 260 261 263 263 264 264 264 264 264 263 262 260 261 261 262 263 264 265 268 271 271 271 272 271 270 271 272 272 272 273 274 274 274 274 274 274 275 274 270 270
258 259 260 260 261 262 263 263 263 263 263 264 263 262 261 261 263 264 264 264 267 269 270 271 272 272 272 273 274 274 274 274 274 275 275 274 274 274 274 273 270 268
259 260 260 260 260 261 261 261 261 261 262 263 264 264 264 264 264 265 265 265 266 267 269 270 272 273 274 275 275 275 275 275 275 275 275 275 274 274 273 272 270 269
260 260 260 260 260 260 260 260 260 260 261 261 262 263 265 265 265 266 266 266 267 268 268 269 271 272 273 274 274 275 276 277 276 276 275 274 273 272 271 270 269 269
262 262 261 260 260 260 260 260 261 261 262 262 262 263 263 263 264 264 265 265 266 267 267 268 268 269 271 272 273 274 275 276 276 276 275 274 272 271 270 269 268 269
262 262 262 261 262 262 262 262 262 263 263 263 263 263 263 263 263 263 264 264 265 265 266 267 267 268 269 270 271 272 274 274 275 275 275 274 272 271 270 269 269 269
262 262 262 262 262 262 262 262 263 263 263 264 264 264 264 264 264 264 264 265 265 266 266 267 268 269 270 271 271 272 273 274 275 275 275 273 272 270 270 269 268 267
262 262 262 262 262 261 261 261 261 261 262 263 263 263 264 264 265 265 265 265 266 266 267 268 269 270 270 271 271 272 273 274 274 275 274 273 272 270 268 268 267 267
262 261 261 261 261 261 261 261 260 260 261 261 262 262 263 264 264 265 266 266 267 267 268 268 268 269 270 271 272 273 273 274 274 273 273 273 271 270 269 269 269 269
262 261 261 261 261 261 261 262 261 261 261 261 261 262 262 263 263 264 265 266 266 267 267 268 269 270 271 273 273 273 272 272 272 272 271 271 271 272 272 271 271 270